Location: Unspecified
(0.0000°N, 0.0000°E)
Time: 20:35:32
(UTC+00:00)

STARLINK-34718 - Visible Passes

Search period start: 10 November 2025 00:00
Search period end: 20 November 2025 00:00
Orbit: 446 x 448 km, 53.2° (Epoch: 08 November)

Date Brightness Start Highest point End Pass type
(mag) Time Alt. Az. Time Alt. Az. Time Alt. Az.
14 Nov 4.7 18:38:05 10° N 18:39:58 18° NE 18:39:58 18° NE visible
15 Nov 5.5 19:34:54 10° WNW 19:37:47 24° SW 19:39:17 18° SSW visible
16 Nov 4.4 18:54:22 10° NW 18:57:43 43° SW 19:01:06 10° SSE visible
17 Nov 3.2 18:13:57 10° NW 18:17:28 86° SW 18:20:59 10° SSE visible
19 Nov 5.2 05:13:33 10° S 05:16:42 33° SE 05:19:51 10° ENE visible
19 Nov 6.9 18:32:17 10° WSW 18:33:14 11° SW 18:34:11 10° SW visible
